Flag for U.S.A. Weather past 2 weeks in Hayward, California, U.S.A.

Now
53 °F

Mostly cloudy.


Feels Like: 53 °F
Forecast: 52 / 59 °F
Wind: 3 mph from East

Location: Hayward Air Terminal

Current Time: Dec 18, 2014 at 6:37:50 AM

Latest Report: Dec 18, 2014 at 5:54 AM


Visibility: 10 mi

Pressure: 30.13 "Hg

Humidity: 86%

Dew point: 49 °F

Location of HaywardLocation

Historic Weather in Hayward — Graph

°F

Hayward temperature yesterday

Maximum temperature yesterday: 59 °F (at 12:54 PM)
Minimum temperature yesterday: 50 °F (at 4:54 AM)
Average temperature yesterday: 54 °F

Past Weeks' High & Low Weather Summary

 TemperatureHumidityPressure
High71 °F (Dec 8, 12:54 PM)100% (Dec 4, 8:54 PM)30.25 "Hg (Dec 4, 8:54 PM)
Low48 °F (Dec 13, 1:54 AM)49% (Dec 14, 1:54 PM)29.55 "Hg (Dec 11, 7:54 AM)
Average58 °F82%30.02 "Hg
* Reported Dec 3 4:54 AM — Dec 18 4:54 AM, Hayward, Weather by CustomWeather, © 2014

Note: Actual official high and low records may vary slightly from our data, if they occured in-between our weather recording intervals... More about our weather records

Advertising

Hayward weather history for previous 24 hours

 ConditionsComfort  
Time TempWeatherWind HumidityBarometerVisibility
4:54 AM
Dec 18
53 °FLight rain. Fog.6 mph86%30.11 "Hg5 mi
3:54 AM54 °FOvercast.7 mph80%30.10 "Hg10 mi
2:54 AM53 °FOvercast.8 mph96%30.10 "Hg10 mi
1:54 AM53 °FOvercast.5 mph96%30.10 "Hg10 mi
12:54 AM53 °FLight rain. Overcast.5 mph93%30.09 "Hg9 mi
11:54 PM
Dec 17
53 °FOvercast.7 mph86%30.10 "Hg10 mi
10:54 PM53 °FLight rain. Overcast.5 mph86%30.10 "Hg9 mi
9:54 PM53 °FOvercast.8 mph86%30.10 "Hg9 mi
8:54 PM54 °FMostly cloudy.9 mph83%30.10 "Hg10 mi
7:54 PM55 °FOvercast.9 mph80%30.09 "Hg10 mi
6:54 PM54 °FLight rain. Overcast.8 mph90%30.09 "Hg10 mi
5:54 PM52 °FLight rain. Overcast.5 mph89%30.09 "Hg10 mi
4:54 PM55 °FLight rain. Overcast.6 mph83%30.07 "Hg10 mi
3:54 PM58 °FLight rain. More clouds than sun.No wind72%30.07 "Hg10 mi
2:54 PM58 °FOvercast.8 mph72%30.05 "Hg10 mi
1:54 PM59 °FPartly sunny.8 mph69%30.05 "Hg10 mi
12:54 PM59 °FSunny.7 mph72%30.08 "Hg10 mi
11:54 AM57 °FSunny.6 mph78%30.08 "Hg10 mi
10:54 AM56 °FPassing clouds.8 mph81%30.11 "Hg10 mi
9:54 AM54 °FScattered clouds.12 mph86%30.10 "Hg10 mi
8:54 AM53 °FOvercast.9 mph86%30.08 "Hg10 mi
7:54 AM52 °FLight rain. Overcast.No wind89%30.06 "Hg10 mi
6:54 AM51 °FOvercast.5 mph89%30.04 "Hg10 mi
Weather by CustomWeather, © 2014

See weather overviewHow to use our weather pages